This is the latest recevied weather packets stored in our database for station/object CE2KVL-1. If no packets are shown the sender has not sent any weather packets the latest 10 day(s).
| Time | Temp. | Humidity | Pressure | Rain* | Wind** | Luminosity | Snow |
|---|---|---|---|---|---|---|---|
| 1778195585 | 13.89° C | 78% | 1029.3 hPa | - | - | - | - |
| 1778195285 | 13.89° C | 77% | 1029.1 hPa | - | - | - | - |
| 1778194985 | 13.89° C | 77% | 1028.3 hPa | - | - | - | - |
| 1778194685 | 13.89° C | 77% | 1028.7 hPa | - | - | - | - |
| 1778194385 | 14.44° C | 77% | 1028.1 hPa | - | - | - | - |
| 1778194085 | 13.89° C | 77% | 1028.8 hPa | - | - | - | - |
| 1778193786 | 13.89° C | 76% | 1029.3 hPa | - | - | - | - |
| 1778193485 | 14.44° C | 74% | 1028.3 hPa | - | - | - | - |
| 1778193185 | 13.89° C | 73% | 1028.9 hPa | - | - | - | - |
| 1778192885 | 13.89° C | 72% | 1028.4 hPa | - | - | - | - |
| 1778192585 | 13.89° C | 71% | 1028.8 hPa | - | - | - | - |
| 1778192285 | 13.89° C | 69% | 1028.3 hPa | - | - | - | - |
| 1778191985 | 13.89° C | 68% | 1028.8 hPa | - | - | - | - |
| 1778191685 | 14.44° C | 64% | 1028.6 hPa | - | - | - | - |
| 1778191386 | 14.44° C | 63% | 1028.3 hPa | - | - | - | - |
| 1778191085 | 14.44° C | 62% | 1028.3 hPa | - | - | - | - |
| 1778190785 | 14.44° C | 64% | 1028.2 hPa | - | - | - | - |
| 1778190485 | 14.44° C | 64% | 1028.4 hPa | - | - | - | - |
| 1778190185 | 14.44° C | 65% | 1028.5 hPa | - | - | - | - |
| 1778189885 | 14.44° C | 64% | 1028.7 hPa | - | - | - | - |
| 1778189585 | 14.44° C | 65% | 1028.3 hPa | - | - | - | - |
| 1778189285 | 14.44° C | 66% | 1028.3 hPa | - | - | - | - |
| 1778188985 | 14.44° C | 65% | 1028.1 hPa | - | - | - | - |
| 1778188685 | 14.44° C | 64% | 1028.2 hPa | - | - | - | - |
| 1778188385 | 15° C | 65% | 1027.4 hPa | - | - | - | - |
* Rain since midnight (hover to see other rain measurements)
** Current wind speed in m/s (hover to see current wind gust speed)